Manchester, NH

2:27 PM EDT on October 21, 2017 (GMT -0400)
Manchester

Weather History for KMHT - October, 2011

Change the Weather History Date:

Wednesday, October 26, 2011

  Actual Average Record
Temperature  
Mean Temperature 42 °F 48 °F  
Max Temperature 46 °F 58 °F 82 °F (1963)
Min Temperature 37 °F 38 °F 19 °F (1952)
Degree Days  
Heating Degree Days 24 17  
Month to date heating degree days 353  
Since 1 July heating degree days 496  
Cooling Degree Days 0 0  
Month to date cooling degree days 0  
Year to date cooling degree days 638  
Moisture  
Dew Point 38 °F    
Average Humidity 81    
Maximum Humidity 93    
Minimum Humidity 70    
Precipitation  
Precipitation 0.01 in 0.13 in 1.19 in (2008)
Month to date precipitation 3.55  
Year to date precipitation 36.62  
Snow  
Snow 0.00 in - - ()
Month to date snowfall  
Since 1 July snowfall  
Snow Depth -    
Sea Level Pressure  
Sea Level Pressure 29.91 in    
Wind  
Wind Speed 1 mph (WSW)    
Max Wind Speed 5 mph    
Max Gust Speed -    
Visibility 10 miles    
Events Rain    
T = Trace of Precipitation, MM = Missing Value Source: NWS Daily Summary

Daily Weather History Graph

Daily Weather History Graph

Search for Another Location

Airport or City:

Trip Planner

Search our weather history database for the weather conditions in past years. The results will help you decide how hot, cold, wet, or windy it might be!

Date:

Astronomy

Oct. 26, 2011 Rise Set
Actual Time 7:12 AM EDT 5:46 PM EDT
Civil Twilight 6:43 AM EDT 6:15 PM EDT
Nautical Twilight 6:09 AM EDT 6:48 PM EDT
Astronomical Twilight 5:37 AM EDT 7:21 PM EDT
Moon 6:57 AM EDT (10/26) 5:24 PM EDT (10/26)
Length of Visible Light 11h 32m
Length of Day
10h 34m
Waning Crescent, 0% of the Moon is Illuminated
Oct 26
Waning Crescent
Oct 26
New
Nov 2
First Quarter
Nov 10
Full
Nov 18
Last Quarter

Hourly Weather History & Observations

Time (EDT) Temp. Windchill Dew Point Humidity Pressure Visibility Wind Dir Wind Speed Gust Speed Precip Events Conditions
12:53 AM 41.0 °F - 32.0 °F 70% 30.01 in 10.0 mi Calm Calm - N/A   Clear
1:53 AM 39.9 °F - 32.0 °F 73% 30.02 in 10.0 mi Calm Calm - N/A   Clear
2:53 AM 39.0 °F - 32.0 °F 76% 30.02 in 10.0 mi Calm Calm - N/A   Clear
3:53 AM 39.0 °F 36.8 °F 32.0 °F 76% 30.00 in 10.0 mi SSW 3.5 mph - N/A   Partly Cloudy
4:53 AM 39.0 °F - 32.0 °F 76% 30.00 in 10.0 mi Calm Calm - N/A   Clear
5:53 AM 37.9 °F - 33.1 °F 83% 29.99 in 10.0 mi Calm Calm - N/A   Partly Cloudy
6:53 AM 41.0 °F - 33.8 °F 76% 29.94 in 10.0 mi Calm Calm - N/A   Overcast
7:53 AM 41.0 °F - 34.0 °F 76% 30.00 in 10.0 mi Calm Calm - N/A   Overcast
8:53 AM 42.1 °F - 37.0 °F 82% 29.99 in 10.0 mi Calm Calm - 0.00 in Rain Light Rain
9:53 AM 42.1 °F 39.2 °F 37.0 °F 82% 29.98 in 10.0 mi SSW 4.6 mph - 0.00 in   Overcast
10:53 AM 42.1 °F 40.2 °F 37.9 °F 85% 29.98 in 10.0 mi SSW 3.5 mph - N/A   Overcast
11:53 AM 44.1 °F - 39.0 °F 82% 29.94 in 10.0 mi Calm Calm - 0.00 in Rain Light Rain
12:53 PM 45.0 °F 43.5 °F 39.0 °F 80% 29.91 in 10.0 mi Variable 3.5 mph - 0.00 in Rain Light Rain
1:53 PM 46.0 °F - 41.0 °F 83% 29.87 in 10.0 mi Calm Calm - 0.00 in Rain Light Rain
2:53 PM 46.9 °F - 41.0 °F 80% 29.87 in 10.0 mi WSW 3.5 mph - 0.01 in   Overcast
3:53 PM 46.0 °F 43.9 °F 42.1 °F 86% 29.85 in 10.0 mi SSW 4.6 mph - N/A   Overcast
4:53 PM 46.0 °F 44.8 °F 39.9 °F 79% 29.85 in 10.0 mi WSW 3.5 mph - N/A   Overcast
5:53 PM 45.0 °F - 41.0 °F 86% 29.84 in 10.0 mi Calm Calm - N/A   Overcast
6:53 PM 45.0 °F 43.5 °F 41.0 °F 86% 29.83 in 10.0 mi SW 3.5 mph - N/A   Mostly Cloudy
7:53 PM 44.6 °F - 42.8 °F 93% 29.78 in 10.0 mi Calm Calm - N/A   Overcast
8:53 PM 45.0 °F - 42.1 °F 90% 29.83 in 10.0 mi Calm Calm - N/A   Overcast
9:53 PM 46.0 °F 44.8 °F 42.1 °F 86% 29.83 in 10.0 mi NNW 3.5 mph - N/A   Overcast
10:53 PM 46.0 °F 44.8 °F 41.0 °F 83% 29.82 in 10.0 mi NNW 3.5 mph - N/A   Overcast
11:53 PM 46.0 °F - 41.0 °F 83% 29.81 in 10.0 mi Calm Calm - N/A   Overcast